TimePST,TemperatureF,Dew PointF,Humidity,Sea Level PressureIn,VisibilityMPH,Wind Direction,Wind SpeedMPH,Gust SpeedMPH,PrecipitationIn,Events,Conditions,WindDirDegrees,DateUTC
12:54 AM,48.9,34.0,56,30.29,10.0,NE,8.1,-,N/A,,Clear,50,2012-11-13 08:54:00
1:54 AM,48.0,33.1,56,30.29,10.0,ENE,3.5,-,N/A,,Clear,60,2012-11-13 09:54:00
2:54 AM,48.0,34.0,58,30.28,10.0,ENE,4.6,-,N/A,,Clear,60,2012-11-13 10:54:00
3:54 AM,46.9,34.0,61,30.27,10.0,Calm,Calm,-,N/A,,Clear,0,2012-11-13 11:54:00
4:54 AM,45.0,34.0,65,30.27,10.0,East,4.6,-,N/A,,Clear,90,2012-11-13 12:54:00
5:54 AM,46.0,34.0,63,30.27,10.0,East,4.6,-,N/A,,Clear,100,2012-11-13 13:54:00
6:54 AM,46.0,34.0,63,30.27,10.0,ENE,4.6,-,N/A,,Clear,60,2012-11-13 14:54:00
7:54 AM,50.0,35.1,57,30.27,10.0,ENE,3.5,-,N/A,,Clear,60,2012-11-13 15:54:00
8:54 AM,54.0,39.0,57,30.26,10.0,Calm,Calm,-,N/A,,Clear,0,2012-11-13 16:54:00
9:54 AM,57.9,37.9,47,30.25,10.0,Calm,Calm,-,N/A,,Clear,0,2012-11-13 17:54:00
10:54 AM,57.9,39.0,49,30.24,10.0,WSW,5.8,-,N/A,,Clear,240,2012-11-13 18:54:00
11:54 AM,60.1,39.9,47,30.20,10.0,West,4.6,-,N/A,,Clear,260,2012-11-13 19:54:00
12:54 PM,62.1,39.9,44,30.17,10.0,West,6.9,-,N/A,,Clear,280,2012-11-13 20:54:00
1:54 PM,63.0,39.0,41,30.15,10.0,WNW,9.2,-,N/A,,Clear,290,2012-11-13 21:54:00
2:54 PM,63.0,46.0,54,30.13,10.0,WSW,4.6,-,N/A,,Clear,250,2012-11-13 22:54:00
3:54 PM,62.1,46.9,58,30.13,10.0,WSW,3.5,-,N/A,,Clear,250,2012-11-13 23:54:00
4:54 PM,61.0,46.9,60,30.12,10.0,Calm,Calm,-,N/A,,Clear,0,2012-11-14 00:54:00
5:54 PM,60.1,46.9,62,30.13,10.0,Calm,Calm,-,N/A,,Clear,0,2012-11-14 01:54:00
6:54 PM,59.0,41.0,51,30.12,10.0,NE,4.6,-,N/A,,Clear,50,2012-11-14 02:54:00
7:54 PM,59.0,39.0,48,30.12,10.0,NNE,5.8,-,N/A,,Clear,30,2012-11-14 03:54:00
8:54 PM,57.9,39.0,49,30.14,10.0,NNE,6.9,-,N/A,,Clear,30,2012-11-14 04:54:00
9:54 PM,57.0,37.9,49,30.14,10.0,NE,8.1,-,N/A,,Clear,40,2012-11-14 05:54:00
10:54 PM,55.9,37.9,51,30.14,10.0,East,5.8,-,N/A,,Clear,90,2012-11-14 06:54:00
11:54 PM,55.0,39.0,55,30.15,10.0,ENE,4.6,-,N/A,,Clear,70,2012-11-14 07:54:00